Stations météo

réclame
Mon MeteoGroup
J6-A, Pays-Bas (6211): Température de l'air & dewpoint: 09.12.2018 12:00:00 - 15.12.2018 12:00:00 (CET)J6-A, Pays-Bas (6211): Vitesse du vent & gusts: 09.12.2018 12:00:00 - 15.12.2018 12:00:00 (CET)J6-A, Pays-Bas (6211): Direction du vent: 09.12.2018 12:00:00 - 15.12.2018 12:00:00 (CET)J6-A, Pays-Bas (6211): reduced air pressure: 09.12.2018 12:00:00 - 15.12.2018 12:00:00 (CET)J6-A, Pays-Bas (6211): visibility: 09.12.2018 12:00:00 - 15.12.2018 12:00:00 (CET)
Date & Time tt [°C] td [°C] ff [km/h] ff [knt] fx [km/h] fx [knt] dd ppp [hPa] vv [km]
15.12.2018 12:00:00 3,4 -2,7 52 28 54 29 SE 1021,4 10
15.12.2018 11:00:00 3,7 -2,6 46 25 50 27 SE 1022,3 10
15.12.2018 10:00:00 3,7 -3,1 46 25 50 27 SE 1022,6 10
15.12.2018 09:00:00 3,8 -3,8 41 22 47 25 SE 1022,7 10
15.12.2018 08:00:00 3,9 -2,8 39 21 43 23 SE 1023,0 10
15.12.2018 07:00:00 3,8 -3,5 37 20 43 23 SE 1023,0 10
15.12.2018 06:00:00 3,9 -3,1 39 21 47 25 ESE 1023,3 10
15.12.2018 05:00:00 4,2 -2,9 35 19 40 21 SE 1023,8 10
15.12.2018 04:00:00 4,5 -4,4 29 16 32 18 ESE 1024,0 10
15.12.2018 03:00:00 4,3 -2,4 28 15 32 18 SE 1024,3 10
15.12.2018 02:00:00 4,0 -1,8 26 14 36 19 SE 1025,1 10
15.12.2018 01:00:00 4,2 -1,8 31 17 32 18 SE 1025,4 10
15.12.2018 00:00:00 4,6 -2,8 28 15 36 19 SE 1025,4 10
14.12.2018 23:00:00 4,6 -2,8 31 17 36 19 ESE 1025,2 10
14.12.2018 22:00:00 4,6 -3,1 35 19 36 19 ESE 1025,3 10
14.12.2018 21:00:00 4,8 -3,9 29 16 36 19 ESE 1025,5 10
14.12.2018 20:00:00 4,7 -4,0 29 16 32 18 ESE 1026,0 10
14.12.2018 19:00:00 4,9 -3,8 29 16 32 18 ESE 1026,5 10
14.12.2018 18:00:00 5,0 -3,0 29 16 32 18 ESE 1026,2 10
14.12.2018 17:00:00 5,2 -3,4 24 13 29 16 ESE 1026,3 10
14.12.2018 16:00:00 5,0 -4,1 29 16 32 18 ESE 1025,9 10
14.12.2018 15:00:00 5,2 -2,8 28 15 36 19 ESE 1025,4 10
14.12.2018 14:00:00 5,3 -2,7 31 17 40 21 ESE 1025,3 10
14.12.2018 13:00:00 5,2 -4,3 34 18 40 21 ESE 1025,2 10
14.12.2018 12:00:00 5,3 -3,8 35 19 40 21 ESE 1025,6 10
14.12.2018 11:00:00 5,5 -3,3 34 18 40 21 SE 1025,4 10
14.12.2018 10:00:00 5,4 -3,6 31 17 36 19 ESE 1025,3 10
14.12.2018 09:00:00 5,5 -4,7 28 15 36 19 ESE 1025,0 10
14.12.2018 08:00:00 5,9 -1,9 22 12 36 19 ESE 1024,8 10
14.12.2018 07:00:00 4,7 0,2 28 15 40 21 E 1024,8 10
14.12.2018 06:00:00 5,9 -2,4 37 20 40 21 ESE 1024,1 10
14.12.2018 05:00:00 4,9 -2,2 44 24 50 27 ESE 1024,2 10
14.12.2018 04:00:00 5,3 -0,9 18 10 32 18 E 1024,1 10
14.12.2018 03:00:00 5,5 -1,3 21 11 32 18 ESE 1024,4 10
14.12.2018 02:00:00 5,3 -1,0 18 10 32 18 ESE 1024,4 10
14.12.2018 01:00:00 5,1 -2,6 26 14 32 18 ESE 1024,7 10
14.12.2018 00:00:00 5,2 -1,3 31 17 32 18 ESE 1024,4 10
13.12.2018 23:00:00 4,8 -0,5 29 16 36 19 ESE 1024,5 10
13.12.2018 22:00:00 5,0 0,1 26 14 32 18 ESE 1024,6 10
13.12.2018 21:00:00 5,4 0,1 34 18 40 21 ESE 1024,1 10
13.12.2018 20:00:00 5,3 -0,5 31 17 40 21 ESE 1024,0 10
13.12.2018 19:00:00 5,3 -0,6 42 23 43 23 ESE 1023,4 10
13.12.2018 18:00:00 5,6 0,1 37 20 43 23 ESE 1023,1 10
13.12.2018 17:00:00 5,6 -0,8 41 22 43 23 ESE 1023,2 10
13.12.2018 16:00:00 5,2 -0,2 41 22 43 23 ESE 1023,0 10
13.12.2018 15:00:00 5,3 -0,1 41 22 43 23 ESE 1023,0 10
13.12.2018 14:00:00 5,2 0,5 46 25 47 25 ESE 1023,0 10
13.12.2018 13:00:00 5,3 0,3 44 24 50 27 ESE 1023,0 10
13.12.2018 12:00:00 5,1 0,2 46 25 50 27 ESE 1023,3 10
13.12.2018 11:00:00 5,2 0,8 44 24 47 25 ESE 1023,6 10
13.12.2018 10:00:00 5,1 0,1 50 27 50 27 ESE 1023,6 10
13.12.2018 09:00:00 5,3 0,3 39 21 50 27 ESE 1023,5 10
13.12.2018 08:00:00 5,0 0,1 42 23 47 25 ESE 1023,2 10
13.12.2018 07:00:00 5,5 0,6 36 19 47 25 ESE 1023,0 50
13.12.2018 06:00:00 5,7 0,1 39 21 43 23 SE 1023,3 10
13.12.2018 05:00:00 5,7 0,5 41 22 47 25 SE 1023,5 10
13.12.2018 04:00:00 6,1 1,2 50 27 54 29 ESE 1023,4 10
13.12.2018 03:00:00 6,5 1,4 48 26 54 29 ESE 1023,7 10
13.12.2018 02:00:00 6,2 -0,3 48 26 50 27 ESE 1024,0 10
13.12.2018 01:00:00 5,9 0,2 46 25 50 27 ESE 1024,4 10
13.12.2018 00:00:00 5,7 0,2 32 18 47 25 ESE 1024,7 50
12.12.2018 23:00:00 5,5 -0,6 41 22 43 23 ESE 1025,2 10
12.12.2018 22:00:00 5,6 0,4 37 20 43 23 ESE 1025,3 10
12.12.2018 21:00:00 5,5 -0,1 34 18 43 23 ESE 1025,3 10
12.12.2018 20:00:00 5,7 -0,4 41 22 47 25 ESE 1025,3 10
12.12.2018 19:00:00 6,4 -0,4 39 21 40 21 ESE 1025,4 10
12.12.2018 18:00:00 6,5 0,0 25 14 36 19 SE 1025,7 50
12.12.2018 17:00:00 6,3 -0,1 29 16 36 19 SE 1025,9 10
12.12.2018 16:00:00 6,2 -0,5 35 19 40 21 ESE 1025,9 10
12.12.2018 15:00:00 6,8 1,5 34 18 36 19 ESE 1025,7 10
12.12.2018 14:00:00 6,7 2,9 37 20 40 21 ESE 1026,4 10
12.12.2018 13:00:00 7,2 2,7 26 14 36 19 SE 1026,3 10
12.12.2018 12:00:00 7,8 2,0 26 14 25 14 ESE 1026,5 10
12.12.2018 11:00:00 7,6 2,4 24 13 32 18 ESE 1026,6 10
12.12.2018 10:00:00 7,9 3,1 18 10 32 18 E 1026,3 10
12.12.2018 09:00:00 7,7 1,4 15 8 32 18 SE 1026,0 10
12.12.2018 08:00:00 7,6 0,3 9 5 14 8 SE 1025,8 10
12.12.2018 07:00:00 7,6 0,8 9 5 18 10 ESE 1025,6 10
12.12.2018 06:00:00 7,5 0,2 9 5 14 8 SE 1025,4 10
12.12.2018 05:00:00 7,5 0,5 8 4 14 8 SSE 1025,5 10
12.12.2018 04:00:00 7,6 0,1 9 5 14 8 ESE 1025,5 10
12.12.2018 03:00:00 7,6 0,1 11 6 32 18 - 1025,7 10
12.12.2018 02:00:00 7,5 -0,8 11 6 29 16 SE 1025,3 10
12.12.2018 01:00:00 7,5 -0,7 9 5 29 16 ESE 1025,2 10
12.12.2018 00:00:00 7,4 -0,6 11 6 29 16 SE 1025,5 10
11.12.2018 23:00:00 7,5 -0,6 21 11 32 18 - 1025,4 10
11.12.2018 22:00:00 7,9 0,2 16 9 32 18 E 1025,1 10
11.12.2018 21:00:00 7,6 -0,4 8 4 25 14 SE 1025,2 10
11.12.2018 20:00:00 7,7 -0,3 9 5 25 14 - 1025,1 10
11.12.2018 19:00:00 7,7 -0,1 13 7 25 14 NE 1025,0 10
11.12.2018 18:00:00 7,9 1,1 13 7 18 10 NNE 1024,7 10
11.12.2018 17:00:00 7,9 0,1 11 6 14 8 NE 1024,8 10
11.12.2018 16:00:00 8,1 1,4 11 6 18 10 NNW 1024,6 28
11.12.2018 15:00:00 8,1 1,4 13 7 18 10 NNW 1024,6 10
11.12.2018 14:00:00 8,0 1,4 15 8 22 12 NNW 1024,8 10
11.12.2018 13:00:00 8,0 1,5 18 10 22 12 NW 1024,6 10
11.12.2018 12:00:00 7,7 1,0 15 8 25 14 NW 1024,9 10
11.12.2018 11:00:00 8,2 1,0 13 7 22 12 N 1025,2 10
11.12.2018 10:00:00 7,8 0,0 15 8 29 16 NNW 1024,9 10
11.12.2018 09:00:00 7,5 -0,5 21 11 32 18 - 1024,8 10
11.12.2018 08:00:00 7,7 -0,1 24 13 32 18 NNW 1024,6 10
11.12.2018 07:00:00 7,5 0,2 29 16 36 19 NW 1024,5 10
11.12.2018 06:00:00 7,4 1,2 31 17 40 21 NW 1024,4 10
11.12.2018 05:00:00 7,4 1,0 34 18 43 23 NW 1024,3 10
11.12.2018 04:00:00 7,3 1,7 29 16 43 23 NW 1024,7 41
11.12.2018 03:00:00 7,4 0,1 29 16 43 23 NW 1024,4 47
11.12.2018 02:00:00 7,3 1,0 46 25 47 25 NW 1024,5 10
11.12.2018 01:00:00 7,4 -0,8 46 25 47 25 NW 1024,7 10
11.12.2018 00:00:00 7,6 -0,2 42 23 47 25 NW 1024,7 10
10.12.2018 23:00:00 7,8 0,7 46 25 47 25 NW 1024,4 10
10.12.2018 22:00:00 7,8 0,0 44 24 47 25 NW 1024,1 10
10.12.2018 21:00:00 7,9 -0,1 52 28 58 31 NW 1024,1 10
10.12.2018 20:00:00 8,0 1,7 48 26 58 31 NW 1023,8 10
10.12.2018 19:00:00 7,9 1,4 52 28 54 29 NW 1023,6 10
10.12.2018 18:00:00 8,0 1,8 52 28 58 31 NW 1023,6 10
10.12.2018 17:00:00 7,8 1,6 54 29 58 31 NW 1023,3 -
10.12.2018 16:00:00 7,7 1,1 61 33 61 33 NW 1022,8 -
10.12.2018 15:00:00 7,3 1,1 61 33 61 33 NW 1022,3 -
10.12.2018 14:00:00 7,2 2,2 63 34 68 37 NW 1021,8 10
10.12.2018 13:00:00 6,8 2,4 61 33 65 35 NW 1021,5 10
10.12.2018 12:00:00 6,4 0,9 61 33 72 39 NW 1021,5 10
10.12.2018 11:00:00 7,2 0,8 59 32 72 39 NW 1021,0 10
10.12.2018 10:00:00 7,4 -1,0 63 34 76 41 NW 1020,1 10
10.12.2018 09:00:00 7,3 -0,3 70 38 72 39 NW 1020,0 10
10.12.2018 08:00:00 7,6 1,2 65 35 76 41 NW 1018,9 10
10.12.2018 07:00:00 7,2 2,3 61 33 83 45 WNW 1018,3 10
10.12.2018 06:00:00 7,9 3,3 54 29 65 35 NW 1018,1 10
10.12.2018 05:00:00 7,7 3,2 55 30 61 33 NW 1017,9 10
10.12.2018 04:00:00 7,4 2,1 59 32 68 37 NW 1017,4 10
10.12.2018 03:00:00 6,9 2,7 55 30 72 39 NW 1017,1 10
10.12.2018 02:00:00 7,5 1,9 61 33 76 41 NW 1016,2 10
10.12.2018 01:00:00 7,9 2,5 57 31 72 39 NW 1015,7 -
10.12.2018 00:00:00 7,9 1,4 67 36 76 41 NW 1014,7 -
09.12.2018 23:00:00 7,9 1,6 63 34 72 39 NW 1014,1 -
09.12.2018 22:00:00 7,2 1,8 72 39 76 41 NW 1013,2 10
09.12.2018 21:00:00 7,4 1,4 80 43 86 47 NW 1012,3 10
09.12.2018 20:00:00 7,9 1,4 68 37 86 47 NW 1011,2 10
09.12.2018 19:00:00 8,2 1,7 74 40 72 39 NW 1010,0 -
09.12.2018 18:00:00 8,7 2,5 68 37 76 41 NW 1008,5 10
09.12.2018 17:00:00 8,9 1,1 68 37 76 41 NW 1006,9 10
09.12.2018 16:00:00 9,0 2,5 68 37 68 37 NW 1005,4 10
09.12.2018 15:00:00 9,0 2,5 65 35 65 35 NW 1004,1 10
09.12.2018 14:00:00 8,7 4,0 59 32 76 41 NW 1002,5 10
09.12.2018 13:00:00 8,9 5,2 63 34 65 35 NW 1000,8 10
09.12.2018 12:00:00 8,4 4,4 72 39 72 39 NW 999,5 10

tt = Température de l'air
td = dewpoint
ff = Vitesse du vent
fx = gusts
dd = Direction du vent
ppp = reduced air pressure
vv = visibility

stations d'obs. à proximité